Regional Weather Roundup
Issued by NWS

Home | Current Version | Previous Version | Text Only | Print | Product List | Glossary Off
Versions: 1 2 3 4 5 6 7 8 9 10 11 12 13 14 15 16 17 18 19 20 21 22 23 24 25 26 27 28 29 30 31 32 33 34 35 36 37 38 39 40 41 42 43 44 45 46 47 48 49 50

000
ASUS43 KBIS 190610
RWRND

NORTH DAKOTA REGIONAL WEATHER ROUNDUP
NATIONAL WEATHER SERVICE BISMARCK ND
1200 AM CST THU JAN 19 2017

NOTE: "FAIR" INDICATES FEW OR NO CLOUDS BELOW 12,000 FEET WITH NO
SIGNIFICANT WEATHER AND/OR OBSTRUCTIONS TO VISIBILITY.


NDZ001>003-009>011-017-190700-
NORTHWEST NORTH DAKOTA

CITY           SKY/WX    TMP DP  RH WIND       PRES   REMARKS
WILLISTON      FAIR      25  21  85 SW3       29.55R
6HR MIN TEMP:  22; 6HR MAX TEMP:  33;

MINOT          FAIR      32  25  75 SW12      29.49F
MINOT AFB      CLEAR     35  26  69 SW15      29.49R
$$

NDZ018>021-031>035-040>046-190700-
SOUTHWEST NORTH DAKOTA

CITY           SKY/WX    TMP DP  RH WIND       PRES   REMARKS
BISMARCK       FAIR      20  14  77 SE8       29.59F WCI  10
6HR MIN TEMP:  18; 6HR MAX TEMP:  27;

DICKINSON      FAIR      29  21  72 W13       29.54S WCI  19
GARRISON         N/A     24  20  84 CALM      29.54S
6HR MIN TEMP:  20; 6HR MAX TEMP:  31;

HETTINGER ARPT CLOUDY    17  13  84 W5        29.58R WCI  10
$$

NDZ004>008-012>016-024-026-027-054-190700-
NORTHEAST NORTH DAKOTA

CITY           SKY/WX    TMP DP  RH WIND       PRES   REMARKS
GRAND FORKS    CLOUDY    26  19  74 S12       29.61F WCI  16
GRND FRKS AFB  CLOUDY    26  21  80 SW10      29.60F WCI  17
DEVILS LAKE    FAIR      26  22  84 SE8       29.55F WCI  18
$$

NDZ022-023-025-028>030-036>039-047>053-190700-
SOUTHEAST NORTH DAKOTA

CITY           SKY/WX    TMP DP  RH WIND       PRES   REMARKS
FARGO          CLOUDY    30  25  81 S13       29.66F WCI  20
6HR MIN TEMP:  29; 6HR MAX TEMP:  35;

JAMESTOWN      FAIR      24  20  84 S6        29.59F WCI  17
$$





USA.gov is the U.S. government's official web portal to all federal, state and local government web resources and services.